www.pogodaiklimat.ru

Погода и климат >> Архив погоды >> Мексика >> Puerto Angel


ПОГОДА в Puerto Angel

  • Прогноз погоды в Puerto Angel
  • Монитор погоды в Puerto Angel
  • Климат города

АРХИВ ПОГОДЫ в Puerto Angel

Время (UTC), дата Ветер
(напр.,м/с)
 
Видим.   Явления Облачность Т
(С)
Тd
(С)
f
(%)
Тe
(С)
Тes
(С)
Комфортность P
(гПа)
Po
(гПа)
Тmin
(С)
Tmax
(С)
R
(мм)
R24
(мм)
S
(см)
03 15.10 С 3 20 км ясно +26.6 +24.1 86 +37 +37 очень
душно
1010.4 1005.6
12 15.10 С 3 30 км ясно +24.4 +22.2 88 +32 +32 очень
душно
1009.6 1004.7 +23.8 +33.2
15 15.10 Ю 1 30 км 3/0
[Cs]
+29.0 +25.0 79 +42 +49 опасность
перегрева
1010.8 1005.8
18 15.10 Ю 2 30 км 1/1 600 м
[Cu med, cong]
+33.0 +25.3 64 +47 +63 опасность
перегрева
1011.2 1006.3 +23.8 +33.8
12 16.10 СВ 1 30 км 5/0 600 м
[Cs]
+24.8 +22.9 89 +33 +33 очень
душно
1010.5 1005.6 +23.4 +34.0
18 16.10 З 2 30 км 1/1 600 м
[Cu med, cong]
+32.4 +26.0 69 +48 +64 опасность
перегрева
1010.1 1005.2 +23.4 +32.6
21 16.10 С 2 30 км 4/1 600 м
[Cu med, cong Ac As Cs]
+33.4 +26.8 68 +51 +59 опасность
перегрева
1009.0 1004.1
00 17.10 СЗ 2 30 км 5/1 600 м
[Cu med, cong Ac As Cs]
+31.4 +26.9 77 +49 +49 опасность
перегрева
1009.2 1004.4 +23.4 +34.0
03 17.10 С 1 30 км 5/0
[Cs]
+27.6 +25.5 88 +40 +40 очень
душно
1010.5 1003.7
06 17.10 С 1 30 км ясно +26.0 +24.1 89 +36 +36 очень
душно
1011.4 1006.6 +23.4 +34.0
12 17.10 С 1 30 км ясно +24.6 +21.6 83 +31 +31 очень
душно
1009.5 1004.6 +23.6 +34.0
15 17.10 В 1 30 км 1/1 600 м
[Cu med, cong]
+29.4 +25.9 81 +44 +51 опасность
перегрева
1010.9 1006.0
18 17.10 З 2 30 км 1/1 600 м
[Cu med, cong]
+32.8 +25.9 67 +48 +64 опасность
перегрева
1010.1 1005.2 +23.6 +33.0
21 17.10 З 3 30 км 3/1 600 м
[Cu med, cong Ac As]
+33.2 +26.6 68 +50 +57 опасность
перегрева
1009.1 1004.3
00 18.10 СЗ 2 30 км 3/1 600 м
[Cu med, cong Cs]
+31.2 +26.4 76 +48 +48 опасность
перегрева
1009.3 1004.4 +23.6 +33.6
03 18.10 С 2 20 км 3/3 600 м
[Cu med, cong]
+27.8 +25.9 89 +41 +41 опасность
перегрева
1010.3 1005.5
06 18.10 С 2 20 км ясно +26.8 +25.5 93 +39 +39 очень
душно
1010.6 1005.7 +23.6 +33.6
09 18.10 С 2 20 км 8/0
[As op]
+26.8 +24.9 89 +38 +38 очень
душно
1010.2 1005.3
12 18.10 С 2 20 км 4/0
[Ac und]
+25.8 +24.4 92 +36 +36 очень
душно
1010.1 1005.2 +25.2 +33.6
15 18.10 С 1 30 км 4/1 600 м
[Cu med, cong Cs]
+30.0 +26.0 79 +45 +51 опасность
перегрева
1010.3 1005.3
18 18.10 СВ 2 30 км 3/1 600 м
[Cu med, cong Cs]
+32.6 +26.5 70 +49 +64 опасность
перегрева
1009.8 1005.0 +25.2 +32.8
21 18.10 С 2 30 км 6/1 600 м
[Cu med, cong Ac As Cs]
+33.6 +27.3 70 +53 +59 опасность
перегрева
1009.1 1004.3
00 19.10 С 2 30 км 4/1 600 м
[Cu med, cong Cs]
+31.6 +26.9 76 +49 +49 опасность
перегрева
1009.3 1004.5 +25.2 +34.0
03 19.10 С 4 20 км 4/4 600 м
[Cb cap]
+27.4 +24.4 84 +39 +39 очень
душно
1010.7 1005.8
06 19.10 С 3 20 км ясно +26.0 +23.2 85 +35 +35 очень
душно
1010.7 1005.9 +25.2 +34.0
09 19.10 С 3 20 км ясно +25.4 +23.2 88 +34 +34 очень
душно
1009.6 1004.7
12 19.10 С 3 20 км ясно +25.0 +22.5 86 +33 +33 очень
душно
1009.0 1004.1 +24.0 +34.0
15 19.10 Ю 12 30 км 1/1 600 м
[Cu med, cong]
+29.6 +25.3 78 +43 +43 опасность
перегрева
1010.1 1005.1
18 19.10 ЮЗ 2 30 км 1/1 600 м
[Cu med, cong]
+33.0 +27.0 71 +51 +67 опасность
перегрева
1010.2 1005.3 +24.0 +34.0
21 19.10 ЮЗ 2 30 км 1/1 600 м
[Cu med, cong]
+34.0 +27.5 69 +53 +63 опасность
перегрева
1008.9 1004.1
00 20.10 ЮЗ 2 30 км 4/1 600 м
[Cu med, cong Cs]
+32.0 +26.7 74 +49 +49 опасность
перегрева
1008.4 1003.5 +24.0 +35.0
03 20.10 СВ 1 30 км 1/1 600 м
[Cu med, cong]
+28.0 +25.3 85 +41 +41 опасность
перегрева
1009.4 1004.6
06 20.10 С 1 30 км 1/1 600 м
[Cu med, cong]
+26.6 +24.4 88 +37 +37 очень
душно
1010.2 1005.3 +24.0 +35.0
12 20.10 С 1 30 км 8/1 600 м
[Cu med, cong Cs]
+24.8 +23.1 90 +33 +33 очень
душно
1008.7 1003.8 +23.6 +35.0
15 20.10 В 2 30 км 1/1 600 м
[Cu med, cong]
+29.0 +23.7 73 +40 +45 очень
душно
1010.6 1005.7
18 20.10 ЮЗ 2 30 км 1/1 600 м
[Cu med, cong]
+33.4 +27.7 72 +53 +69 опасность
перегрева
1010.6 1005.7 +23.6 +34.4
21 20.10 ЮЗ 2 30 км 4/1 600 м
[Cu med, cong Ac As]
+33.8 +27.0 68 +52 +59 опасность
перегрева
1009.4 1004.5
00 21.10 ЮЗ 2 30 км 1/1 600 м
[Cu med, cong]
+31.6 +26.6 75 +49 +49 опасность
перегрева
1007.6 1002.8 +23.6 +35.2
03 21.10 С 1 30 км 8/1 600 м
[Cu med, cong Cs]
+28.8 +25.9 84 +43 +43 опасность
перегрева
1008.6 1003.8
06 21.10 СВ 1 30 км 6/1 600 м
[Cu med, cong Cs]
+27.0 +24.8 88 +39 +39 очень
душно
1009.3 1004.5 +23.6 +35.2
12 21.10 СВ 1 30 км 6/1 600 м
[Cu med, cong Cs]
+24.6 +22.6 89 +32 +32 очень
душно
1008.5 1003.6 +23.0 +35.2
15 21.10 ЮВ 2 30 км 1/1 600 м
[Cu med, cong]
+29.4 +24.2 74 +41 +47 опасность
перегрева
1010.6 1005.7
18 21.10 ЮЗ 2 30 км 1/1 600 м
[Cu med, cong]
+33.4 +26.8 68 +51 +66 опасность
перегрева
1010.6 1005.7 +23.0 +34.2
21 21.10 ЮЗ 2 30 км 1/1 600 м
[Cu med, cong]
+33.8 +27.3 69 +53 +62 опасность
перегрева
1008.3 1003.5

 

Местоположение метеостанции Puerto Angel (Мексика): широта 15.68 долгота -96.48 высота над уровнем моря 46 м.

В архиве по умолчанию представлена погода в Puerto Angel за последнюю неделю. Архивные данные за месяц целиком и за предыдущие месяцы, начиная с января 2011 года, Вы можете получить, выбрав интересующий диапазон дат из раскрывающегося списка и нажав кнопку "Ввод!".

Внимание! Время в таблицах - всемирное. Для получения местного времени необходимо прибавить поправку, которая в Puerto Angel равна -6 ч.

Смотрите также архив погоды в соседних городах и на ближайших метеорологических станциях:

Погода в Salina Cruz (Мексика) (149 км)
Погода в Oaxaca (Мексика) (154 км)
Погода в Huajuapan De Leon (Мексика) (273 км)
Погода в Arriaga (Мексика) (283 км)
Погода в Coatzacoalcos (Мексика) (350 км)
Погода в Orizaba Ver. (Мексика) (359 км)
Погода в Cordoba-In-Veracruz (Мексика) (361 км)
Погода в Tuxtla Gutierrez (Мексика) (377 км)
Погода в Chilpancingo (Мексика) (383 км)
Погода в Hacienda Ylang (Мексика) (388 км)

Пояснения к столбцам:

Ветер - указаны скорость ветра в м/с - средняя за 10 мин, порывы в срок и между сроками (в фигурных скобках) и направление, откуда дует ветер: С - северный, СВ - северо-восточный, В - восточный, ЮВ - юго-восточный, Ю - южный, ЮЗ - юго-западный, З - западный, СЗ - северо-западный.
Видимость - горизонтальная дальность видимости в метрах или километрах. При видимости от 1 до 10 км при отсутствии осадков обычно наблюдается дымка, при ухудшении видимости до 1 км и менее - туман. В сухую погоду видимость может ухудшаться дымом, пылью или мглою.
Явления - указаны атмосферные явления, наблюдавшиеся в срок или в последний час перед сроком; фигурными скобками обозначены явления, наблюдавшиеся между сроками (за 1-3 часа до срока); квадратными скобками обозначены град или гололедные отложения с указанием их диаметра в мм.
Облачность - указаны через наклонную черту общая и нижняя облачность в баллах и высота нижней границы облаков в метрах; квадратными скобками обозначены формы облаков: Ci - перистые, Cs - перисто-слоистые, Cc - перисто-кучевые, Ac - высококучевые, As - высокослоистые, Sc - слоисто-кучевые, Ns - слоисто-дождевые, Cu - кучевые, Cb - кучево-дождевые. Подробнее классификацию облаков см. в Атласе облаков (PDF).
T - Температура воздуха - температура, измеренная на высоте 2 м над землей.
Td - Температура точки росы - температура, при понижении до которой содержащийся в воздухе водяной пар достигнет насыщения.
f - Относительная влажность воздуха - влажноcть воздуха, измеренная на высоте 2 м над землей.
Te - Эффективная температура - температура, которую ощущает одетый по сезону человек в тени. Характеристика душности погоды. При расчете учитывается влияние влажности воздуха и скорости ветра на теплоощущения человека.
Tes - Эффективная температура на солнце - температура, которую ощущает человек, с поправкой на солнечный нагрев. Характеристика знойности погоды. Зависит от высоты солнца над горизонтом, облачности и скорости ветра. Ночью, в пасмурную погоду, а также при ветре 12 м/с и более поправка равна нулю.
P - Атмосферное давление - приведенное к уровню моря атмосферное давление.
Po - Атмосферное давление - измеренное на уровне метеостанции атмосферное давление.
Tmin - Минимальная температура - минимум температуры воздуха на высоте 2 м над землей.
Tmax - Максимальная температура - максимум температуры воздуха на высоте 2 м над землей.
R - Количество осадков - Количество выпавших осадков за период времени, мм. При наведении курсора мыши на число - период времени, за который выпало указанное количество осадков.
R24 - Количество осадков - Количество выпавших осадков за 24 часа, мм.
S - Снежный покров - Высота снежного покрова, см. При наведении курсора мыши на число - состояние снежного покрова и степень покрытия местности в баллах.